Terminal Aerodrome Forecast
Issued by NWS

Home | Current Version | Previous Version | Text Only | Print | Product List | Glossary On
Versions: 1 2 3 4 5 6 7 8 9 10 11 12 13 14 15 16 17 18 19
000
FTUS46 KSEW 210200 AAA
TAFHQM
TAF AMD
KHQM 210215Z 2102/2124 13006KT P6SM -SHRA SCT025 OVC040
      TEMPO 2102/2105 4SM SHRA OVC025
     FM210500 16008KT 4SM BR VCSH OVC020
     FM211700 16013G22KT P6SM VCSH OVC030
      TEMPO 2120/2124 -RA OVC020=

USA.gov is the U.S. government's official web portal to all federal, state and local government web resources and services.